| time (UTC) | temp F | wind direction | speed MPH | gust MPH | rain 1hr in | rain 24hr in | rain mn in | humidity % | barometer mb |
| 20260504050348 | 60 | 267 | 0.0 | 0.0 | 0.00 | 0.00 | 0.00 | 33 | 1003.8 |
| 20260504045842 | 61 | 267 | 0.0 | 0.0 | 0.00 | 0.00 | 0.00 | 33 | 1003.8 |
| 20260504045326 | 62 | 267 | 0.0 | 0.0 | 0.00 | 0.00 | 0.00 | 32 | 1003.9 |
| 20260504044833 | 62 | 267 | 0.0 | 0.0 | 0.00 | 0.00 | 0.00 | 31 | 1003.9 |
| 20260504044326 | 62 | 266 | 0.0 | 0.0 | 0.00 | 0.00 | 0.00 | 31 | 1004.0 |
| 20260504043828 | 62 | 265 | 0.0 | 0.0 | 0.00 | 0.00 | 0.00 | 31 | 1003.9 |
| 20260504043338 | 63 | 265 | 0.0 | 0.0 | 0.00 | 0.00 | 0.00 | 30 | 1003.9 |
| 20260504042843 | 64 | 265 | 0.0 | 0.0 | 0.00 | 0.00 | 0.00 | 28 | 1003.9 |
| 20260504042342 | 64 | 265 | 0.0 | 0.0 | 0.00 | 0.00 | 0.00 | 27 | 1003.8 |
| 20260504041848 | 65 | 272 | 0.0 | 0.0 | 0.00 | 0.00 | 0.00 | 27 | 1003.8 |
| 20260504041332 | 65 | 272 | 0.0 | 0.0 | 0.00 | 0.00 | 0.00 | 27 | 1003.8 |
| 20260504040819 | 65 | 263 | 0.0 | 2.0 | 0.00 | 0.00 | 0.00 | 27 | 1003.8 |
| 20260504040310 | 65 | 266 | 0.0 | 2.0 | 0.00 | 0.00 | 0.00 | 27 | 1003.9 |
| 20260504035815 | 65 | 267 | 1.0 | 2.0 | 0.00 | 0.00 | 0.00 | 27 | 1003.8 |
| 20260504035319 | 65 | 262 | 0.0 | 1.0 | 0.00 | 0.00 | 0.00 | 27 | 1003.8 |
| 20260504034827 | 65 | 264 | 0.0 | 1.0 | 0.00 | 0.00 | 0.00 | 27 | 1003.8 |
| 20260504034310 | 65 | 270 | 0.0 | 1.0 | 0.00 | 0.00 | 0.00 | 27 | 1003.8 |
| 20260504033814 | 65 | 268 | 0.0 | 1.0 | 0.00 | 0.00 | 0.00 | 27 | 1003.7 |
| 20260504033258 | 66 | 270 | 0.0 | 1.0 | 0.00 | 0.00 | 0.00 | 26 | 1003.9 |
| 20260504032759 | 66 | 271 | 0.0 | 1.0 | 0.00 | 0.00 | 0.00 | 26 | 1003.8 |
| 20260504031636 | 66 | 270 | 0.0 | 1.0 | 0.00 | 0.00 | 0.00 | 26 | 1003.8 |
| 20260504031121 | 67 | 272 | 0.0 | 0.0 | 0.00 | 0.00 | 0.00 | 25 | 1003.8 |
| 20260504025937 | 67 | 275 | 0.0 | 2.0 | 0.00 | 0.00 | 0.00 | 25 | 1003.7 |
| 20260504025433 | 67 | 275 | 0.0 | 1.0 | 0.00 | 0.00 | 0.00 | 25 | 1003.6 |
| 20260504024918 | 67 | 276 | 0.0 | 0.0 | 0.00 | 0.00 | 0.00 | 25 | 1003.7 |
| 20260504024425 | 68 | 277 | 0.0 | 1.0 | 0.00 | 0.00 | 0.00 | 24 | 1003.5 |
| 20260504023918 | 68 | 273 | 0.0 | 0.0 | 0.00 | 0.00 | 0.00 | 24 | 1003.6 |
| 20260504023412 | 68 | 272 | 0.0 | 1.0 | 0.00 | 0.00 | 0.00 | 24 | 1003.6 |
| 20260504022900 | 68 | 273 | 0.0 | 1.0 | 0.00 | 0.00 | 0.00 | 23 | 1003.5 |
| 20260504022342 | 69 | 274 | 0.0 | 1.0 | 0.00 | 0.00 | 0.00 | 23 | 1003.5 |
| 20260504021845 | 69 | 275 | 0.0 | 1.0 | 0.00 | 0.00 | 0.00 | 23 | 1003.5 |
| 20260504021339 | 69 | 279 | 0.0 | 0.0 | 0.00 | 0.00 | 0.00 | 23 | 1003.5 |
| 20260504020828 | 69 | 279 | 0.0 | 1.0 | 0.00 | 0.00 | 0.00 | 23 | 1003.5 |
| 20260504015703 | 70 | 275 | 0.0 | 0.0 | 0.00 | 0.00 | 0.00 | 23 | 1003.5 |
| 20260504015207 | 70 | 275 | 0.0 | 0.0 | 0.00 | 0.00 | 0.00 | 23 | 1003.5 |
| 20260504014704 | 70 | 275 | 0.0 | 0.0 | 0.00 | 0.00 | 0.00 | 22 | 1003.5 |
| 20260504014155 | 71 | 275 | 0.0 | 0.0 | 0.00 | 0.00 | 0.00 | 22 | 1003.6 |
| 20260504013640 | 71 | 283 | 0.0 | 0.0 | 0.00 | 0.00 | 0.00 | 22 | 1003.6 |
| 20260504013122 | 71 | 279 | 0.0 | 0.0 | 0.00 | 0.00 | 0.00 | 22 | 1003.6 |
| 20260504012629 | 72 | 279 | 0.0 | 0.0 | 0.00 | 0.00 | 0.00 | 22 | 1003.8 |
| 20260504012113 | 72 | 278 | 0.0 | 0.0 | 0.00 | 0.00 | 0.00 | 22 | 1003.7 |
| 20260504011010 | 72 | 313 | 0.0 | 0.0 | 0.00 | 0.00 | 0.00 | 21 | 1003.8 |
| 20260504010452 | 72 | 312 | 0.0 | 0.0 | 0.00 | 0.00 | 0.00 | 22 | 1003.8 |
| 20260504005944 | 73 | 322 | 0.0 | 0.0 | 0.00 | 0.00 | 0.00 | 21 | 1003.8 |
| 20260504005426 | 73 | 327 | 0.0 | 2.0 | 0.00 | 0.00 | 0.00 | 21 | 1003.9 |
| 20260504004915 | 73 | 316 | 0.0 | 2.0 | 0.00 | 0.00 | 0.00 | 21 | 1004.0 |
| 20260504004402 | 73 | 279 | 0.0 | 0.0 | 0.00 | 0.00 | 0.00 | 21 | 1004.1 |
| 20260504003905 | 73 | 272 | 0.0 | 6.0 | 0.00 | 0.00 | 0.00 | 22 | 1004.2 |
| 20260504003409 | 73 | 318 | 0.0 | 6.0 | 0.00 | 0.00 | 0.00 | 21 | 1004.2 |
| 20260504002909 | 74 | 341 | 0.0 | 6.0 | 0.00 | 0.00 | 0.00 | 21 | 1004.2 |
| 20260504002408 | 74 | 313 | 0.0 | 3.0 | 0.00 | 0.00 | 0.00 | 20 | 1004.2 |
| 20260504001916 | 74 | 317 | 0.0 | 1.0 | 0.00 | 0.00 | 0.00 | 21 | 1004.3 |
| 20260504001407 | 75 | 301 | 0.0 | 0.0 | 0.00 | 0.00 | 0.00 | 21 | 1004.3 |
| 20260504000848 | 75 | 301 | 0.0 | 0.0 | 0.00 | 0.00 | 0.00 | 20 | 1004.2 |
| 20260503235717 | 75 | 277 | 0.0 | 0.0 | 0.00 | 0.00 | 0.00 | 18 | 1004.3 |
| 20260503235219 | 75 | 310 | 0.0 | 2.0 | 0.00 | 0.00 | 0.00 | 19 | 1004.3 |
| 20260503234719 | 75 | 296 | 0.0 | 2.0 | 0.00 | 0.00 | 0.00 | 18 | 1004.3 |
| 20260503234219 | 75 | 298 | 0.0 | 0.0 | 0.00 | 0.00 | 0.00 | 19 | 1004.3 |
| 20260503233046 | 76 | 333 | 1.0 | 5.0 | 0.00 | 0.00 | 0.00 | 16 | 1004.4 |
| 20260503232554 | 76 | 307 | 1.0 | 2.0 | 0.00 | 0.00 | 0.00 | 16 | 1004.5 |
| 20260503231433 | 76 | 339 | 1.0 | 6.0 | 0.00 | 0.00 | 0.00 | 14 | 1004.6 |
| 20260503230933 | 76 | 335 | 2.0 | 7.0 | 0.00 | 0.00 | 0.00 | 14 | 1004.6 |
| 20260503230441 | 76 | 338 | 2.0 | 7.0 | 0.00 | 0.00 | 0.00 | 14 | 1004.6 |
| 20260503225316 | 76 | 337 | 2.0 | 7.0 | 0.00 | 0.00 | 0.00 | 13 | 1004.7 |
| 20260503224809 | 77 | 342 | 2.0 | 7.0 | 0.00 | 0.00 | 0.00 | 14 | 1004.7 |
| 20260503223019 | 77 | 327 | 0.0 | 5.0 | 0.00 | 0.00 | 0.00 | 14 | 1004.9 |
| 20260503222516 | 77 | 316 | 0.0 | 1.0 | 0.00 | 0.00 | 0.00 | 13 | 1005.0 |
| 20260503222024 | 77 | 265 | 0.0 | 4.0 | 0.00 | 0.00 | 0.00 | 15 | 1005.1 |
| 20260503220253 | 77 | 28 | 0.0 | 3.0 | 0.00 | 0.00 | 0.00 | 13 | 1005.5 |
| 20260503215803 | 77 | 329 | 0.0 | 3.0 | 0.00 | 0.00 | 0.00 | 12 | 1005.6 |
| 20260503215306 | 77 | 324 | 0.0 | 2.0 | 0.00 | 0.00 | 0.00 | 12 | 1005.7 |
| 20260503214757 | 77 | 13 | 0.0 | 1.0 | 0.00 | 0.00 | 0.00 | 12 | 1005.8 |
| 20260503213648 | 77 | 340 | 0.0 | 3.0 | 0.00 | 0.00 | 0.00 | 13 | 1006.1 |
| 20260503212534 | 77 | 263 | 1.0 | 5.0 | 0.00 | 0.00 | 0.00 | 12 | 1006.2 |
| 20260503211420 | 77 | 235 | 2.0 | 7.0 | 0.00 | 0.00 | 0.00 | 14 | 1006.4 |
| 20260503210910 | 77 | 256 | 2.0 | 7.0 | 0.00 | 0.00 | 0.00 | 14 | 1006.5 |
| 20260503205754 | 78 | 207 | 0.0 | 9.0 | 0.00 | 0.00 | 0.00 | 13 | 1006.8 |
| 20260503205250 | 78 | 223 | 1.0 | 9.0 | 0.00 | 0.00 | 0.00 | 12 | 1006.8 |
| 20260503204751 | 78 | 266 | 1.0 | 9.0 | 0.00 | 0.00 | 0.00 | 15 | 1006.9 |
| 20260503203655 | 78 | 227 | 1.0 | 5.0 | 0.00 | 0.00 | 0.00 | 12 | 1007.1 |
| 20260503203159 | 77 | 324 | 1.0 | 5.0 | 0.00 | 0.00 | 0.00 | 13 | 1007.3 |
| 20260503202706 | 77 | 235 | 2.0 | 5.0 | 0.00 | 0.00 | 0.00 | 13 | 1007.3 |
| 20260503202209 | 77 | 287 | 3.0 | 8.0 | 0.00 | 0.00 | 0.00 | 13 | 1007.4 |
| 20260503201715 | 78 | 245 | 2.0 | 8.0 | 0.00 | 0.00 | 0.00 | 13 | 1007.4 |
| 20260503201223 | 78 | 270 | 2.0 | 8.0 | 0.00 | 0.00 | 0.00 | 14 | 1007.5 |
| 20260503200723 | 78 | 267 | 1.0 | 8.0 | 0.00 | 0.00 | 0.00 | 13 | 1007.6 |
| 20260503195556 | 78 | 199 | 2.0 | 8.0 | 0.00 | 0.00 | 0.00 | 13 | 1007.9 |
| 20260503194427 | 78 | 291 | 1.0 | 9.0 | 0.00 | 0.00 | 0.00 | 13 | 1008.0 |
| 20260503193923 | 78 | 291 | 2.0 | 9.0 | 0.00 | 0.00 | 0.00 | 14 | 1008.1 |
| 20260503193424 | 77 | 187 | 2.0 | 9.0 | 0.00 | 0.00 | 0.00 | 13 | 1008.2 |
| 20260503192916 | 76 | 52 | 1.0 | 6.0 | 0.00 | 0.00 | 0.00 | 15 | 1008.2 |
| 20260503191143 | 75 | 227 | 2.0 | 7.0 | 0.00 | 0.00 | 0.00 | 14 | 1008.6 |
| 20260503190635 | 75 | 232 | 1.0 | 7.0 | 0.00 | 0.00 | 0.00 | 16 | 1008.7 |
| 20260503190127 | 75 | 237 | 1.0 | 7.0 | 0.00 | 0.00 | 0.00 | 17 | 1008.8 |
| 20260503185015 | 74 | 315 | 2.0 | 7.0 | 0.00 | 0.00 | 0.00 | 16 | 1008.9 |
| 20260503183844 | 75 | 240 | 2.0 | 7.0 | 0.00 | 0.00 | 0.00 | 15 | 1009.0 |
| 20260503183352 | 76 | 170 | 1.0 | 7.0 | 0.00 | 0.00 | 0.00 | 15 | 1009.1 |
| 20260503182856 | 76 | 261 | 2.0 | 7.0 | 0.00 | 0.00 | 0.00 | 16 | 1009.2 |
| 20260503182402 | 75 | 262 | 3.0 | 13.0 | 0.00 | 0.00 | 0.00 | 15 | 1009.3 |
| 20260503181859 | 75 | 265 | 2.0 | 13.0 | 0.00 | 0.00 | 0.00 | 16 | 1009.3 |
| 20260503180744 | 76 | 187 | 5.0 | 13.0 | 0.00 | 0.00 | 0.00 | 14 | 1009.4 |
| 20260503180239 | 75 | 206 | 5.0 | 12.0 | 0.00 | 0.00 | 0.00 | 16 | 1009.5 |
| 20260503175721 | 76 | 218 | 4.0 | 12.0 | 0.00 | 0.00 | 0.00 | 16 | 1009.4 |
| 20260503175218 | 75 | 182 | 4.0 | 12.0 | 0.00 | 0.00 | 0.00 | 16 | 1009.5 |
| 20260503174716 | 75 | 266 | 4.0 | 12.0 | 0.00 | 0.00 | 0.00 | 17 | 1009.6 |
| 20260503174205 | 75 | 212 | 4.0 | 11.0 | 0.00 | 0.00 | 0.00 | 17 | 1009.6 |
| 20260503173652 | 74 | 190 | 4.0 | 11.0 | 0.00 | 0.00 | 0.00 | 18 | 1009.6 |
| 20260503173140 | 74 | 253 | 4.0 | 11.0 | 0.00 | 0.00 | 0.00 | 18 | 1009.8 |
| 20260503172635 | 74 | 181 | 5.0 | 11.0 | 0.00 | 0.00 | 0.00 | 16 | 1009.9 |
| 20260503172121 | 73 | 246 | 4.0 | 11.0 | 0.00 | 0.00 | 0.00 | 17 | 1010.0 |
| 20260503171619 | 73 | 260 | 4.0 | 10.0 | 0.00 | 0.00 | 0.00 | 18 | 1010.0 |
| 20260503171116 | 73 | 239 | 4.0 | 12.0 | 0.00 | 0.00 | 0.00 | 18 | 1010.0 |
| 20260503170607 | 73 | 259 | 5.0 | 12.0 | 0.00 | 0.00 | 0.00 | 18 | 1010.0 |
| 20260503160118 | 69 | 249 | 4.0 | 14.0 | 0.00 | 0.00 | 0.00 | 23 | 1010.5 |
| 20260503150920 | 65 | 245 | 4.0 | 14.0 | 0.00 | 0.00 | 0.00 | 25 | 1011.0 |
| 20260503150415 | 65 | 217 | 4.0 | 14.0 | 0.00 | 0.00 | 0.00 | 26 | 1011.1 |
| 20260503130933 | 52 | 269 | 0.0 | 0.0 | 0.00 | 0.00 | 0.00 | 45 | 1011.0 |
| 20260503130438 | 52 | 253 | 0.0 | 0.0 | 0.00 | 0.00 | 0.00 | 44 | 1010.9 |
| 20260503110758 | 49 | 298 | 0.0 | 0.0 | 0.00 | 0.00 | 0.00 | 47 | 1011.5 |
| 20260503110306 | 49 | 298 | 0.0 | 0.0 | 0.00 | 0.00 | 0.00 | 46 | 1011.5 |
| 20260503090338 | 50 | 226 | 0.0 | 2.0 | 0.00 | 0.00 | 0.00 | 48 | 1011.6 |
| 20260503080544 | 50 | 263 | 0.0 | 0.0 | 0.00 | 0.00 | 0.00 | 48 | 1011.8 |
| 20260503072506 | 53 | 263 | 0.0 | 0.0 | 0.00 | 0.00 | 0.00 | 43 | 1011.8 |
| 20260503071949 | 53 | 263 | 0.0 | 0.0 | 0.00 | 0.00 | 0.00 | 41 | 1011.8 |
| 20260503071430 | 52 | 263 | 0.0 | 0.0 | 0.00 | 0.00 | 0.00 | 42 | 1011.7 |
| 20260503070930 | 52 | 263 | 0.0 | 0.0 | 0.00 | 0.00 | 0.00 | 43 | 1011.8 |
| 20260503060224 | 55 | 268 | 0.0 | 0.0 | 0.00 | 0.00 | 0.00 | 40 | 1011.9 |
| 20260503054649 | 55 | 268 | 0.0 | 0.0 | 0.00 | 0.00 | 0.00 | 40 | 1012.0 |
| 20260503053533 | 56 | 268 | 0.0 | 0.0 | 0.00 | 0.00 | 0.00 | 39 | 1011.9 |
| 20260503053030 | 56 | 268 | 0.0 | 0.0 | 0.00 | 0.00 | 0.00 | 38 | 1011.9 |
| 20260503052519 | 57 | 268 | 0.0 | 0.0 | 0.00 | 0.00 | 0.00 | 37 | 1011.8 |
| 20260503052008 | 57 | 268 | 0.0 | 0.0 | 0.00 | 0.00 | 0.00 | 36 | 1011.9 |